Location: Caltech
(34.1382°N, 118.1253°W)
Time: 23:12:38
(UTC-07:00)

ADEOS II - Visible Passes

Search period start: 02 July 2015 00:00
Search period end: 12 July 2015 00:00
Orbit: 801 x 802 km, 98.3° (Epoch: 02 July)

Date Brightness Start Highest point End Pass type
(mag) Time Alt. Az. Time Alt. Az. Time Alt. Az.
02 Jul 4.9 04:54:32 10° ENE 04:56:51 13° E 04:59:29 10° ESE visible
05 Jul 4.6 05:14:13 10° NE 05:18:13 22° E 05:22:20 10° SE visible
06 Jul 5.0 04:49:58 10° ENE 04:51:39 12° E 04:53:42 10° ESE visible
09 Jul 4.6 05:09:17 10° NE 05:13:02 20° E 05:16:56 10° SE visible
10 Jul 5.2 04:45:50 10° E 04:46:26 10° E 04:47:28 10° E visible
